Asyut, Egypt

2:02 AM EET on December 18, 2017 (GMT +0200)
Asyut

Weather History for HEAT - September, 2013

Change the Weather History Date:

Sunday, September 29, 2013

  Actual Average Record
Temperature  
Mean Temperature 76 °F -  
Max Temperature 88 °F 87 °F - ()
Min Temperature 65 °F 61 °F - ()
Cooling Degree Days 12    
Growing Degree Days 26 (Base 50)    
Moisture  
Dew Point 58 °F    
Average Humidity 52    
Maximum Humidity 73    
Minimum Humidity 26    
Precipitation  
Precipitation 0.00 in 0.00 in - ()
Sea Level Pressure  
Sea Level Pressure 29.93 in    
Wind  
Wind Speed 6 mph ()    
Max Wind Speed 70 mph    
Max Gust Speed -    
Visibility 6.0 miles    
Events      
T = Trace of Precipitation, MM = Missing Value Source: Averaged Metar Reports

Daily Weather History Graph

Daily Weather History Graph

Search for Another Location

Airport or City:

Trip Planner

Search our weather history database for the weather conditions in past years. The results will help you decide how hot, cold, wet, or windy it might be!

Date:

Astronomy

Sep. 29, 2013 Rise Set
Actual Time 5:47 AM EET 5:44 PM EET
Civil Twilight 5:24 AM EET 6:07 PM EET
Nautical Twilight 4:57 AM EET 6:34 PM EET
Astronomical Twilight 4:30 AM EET 7:01 PM EET
Moon 12:36 AM EET (9/29) 2:04 PM EET (9/29)
Length of Visible Light 12h 43m
Length of Day
11h 56m
Waning Crescent, 29% of the Moon is Illuminated
Sep 29
Waning Crescent
Oct 5
New
Oct 12
First Quarter
Oct 19
Full
Oct 27
Last Quarter

Hourly Weather History & Observations

Time (EET) Temp. Heat Index Dew Point Humidity Pressure Visibility Wind Dir Wind Speed Gust Speed Precip Events Conditions
12:00 AM 71.6 °F - 60.8 °F 69% 29.95 in - NW 1.2 mph - N/A   Clear
1:00 AM 71.6 °F - 60.8 °F 69% 29.95 in - NNW 1.2 mph - N/A   Clear
2:00 AM 70 °F - 58 °F 58% 29.92 in 6 mi NW 2.3 mph - -  
2:00 AM 69.8 °F - 59.0 °F 68% 29.92 in - NW 2.3 mph - N/A   Clear
3:00 AM 68.0 °F - 59.0 °F 73% 29.92 in - NNW 2.3 mph - N/A   Clear
4:00 AM 68.0 °F - 57.2 °F 68% 29.92 in - NW 2.3 mph - N/A   Clear
5:00 AM 66.2 °F - 57.2 °F 73% 29.92 in - NW 70.2 mph - N/A   Clear
6:00 AM 66.2 °F - 57.2 °F 73% 29.92 in - NW 1.2 mph - N/A   Clear
7:00 AM 68.0 °F - 59.0 °F 73% 29.95 in - NW 2.3 mph - N/A   Clear
8:00 AM 71 °F - 60 °F 61% 29.96 in 6 mi NW 2.3 mph - -  
8:00 AM 71.6 °F - 60.8 °F 69% 29.98 in - NW 2.3 mph - N/A   Clear
9:00 AM 78.8 °F - 62.6 °F 57% 29.98 in - NW 2.3 mph - N/A   Clear
10:00 AM 80.6 °F 81.5 °F 60.8 °F 51% 29.98 in - NW 5.8 mph - N/A   Clear
11:00 AM 82.4 °F 82.9 °F 60.8 °F 48% 29.98 in - NNW 6.9 mph - N/A   Clear
12:00 PM 84.2 °F 83.8 °F 59.0 °F 42% 29.95 in - NW 6.9 mph - N/A   Clear
1:00 PM 86.0 °F - 51.8 °F 31% 29.92 in - NW 8.1 mph - N/A   Clear
2:00 PM 87 °F - 57 °F 26% 29.87 in 6 mi NW 9.2 mph - -  
2:00 PM 87.8 °F 86.5 °F 57.2 °F 35% 29.89 in - NW 9.2 mph - N/A   Clear
3:00 PM 87.8 °F 86.5 °F 57.2 °F 35% 29.89 in - NNW 8.1 mph - N/A   Clear
4:00 PM 87.8 °F 86.1 °F 55.4 °F 33% 29.89 in - NNW 9.2 mph - N/A   Clear
5:00 PM 86.0 °F 84.2 °F 53.6 °F 33% 29.89 in - NNW 6.9 mph - N/A   Clear
6:00 PM 84.2 °F - 51.8 °F 33% 29.89 in - NNW 5.8 mph - N/A   Clear
7:00 PM 84.2 °F - 51.8 °F 33% 29.92 in - NW 5.8 mph - N/A   Clear
8:00 PM 79 °F - 57 °F 37% 29.90 in 6 mi NNW 5.8 mph - -  
8:00 PM 78.8 °F - 57.2 °F 47% 29.92 in - NNW 5.8 mph - N/A   Clear
9:00 PM 77.0 °F - 57.2 °F 50% 29.95 in - NNW 2.3 mph - N/A   Clear
10:00 PM 75.2 °F - 55.4 °F 50% 29.95 in - NNW 1.2 mph - N/A   Clear
11:00 PM 73.4 °F - 59.0 °F 61% 29.92 in - NNW 1.2 mph - N/A   Clear